Simultaneous Nadir Overpasses (SNOs) Predictions

Prediction of SNOs between AQUA and METOP-C Satellite Orbit:

Table of predicted SNOs for the next 14.0 days since TLE Epoch: 7/6/2019
Index Date (AQUA) Time (AQUA) Lat,Lon (AQUA) SZA (AQUA ) Date (METOP-C) Time (METOP-C) Lat,Lon (METOP-C) SZA (METOP-C ) Distance(km) Time Diff (sec)
1 07/07/2019 19:07:03 73.68,-112.20 51.17 07/07/2019 19:05:50 73.63,-112.53 51.15 11.88 73
2 07/07/2019 19:56:32 -73.83, 55.12 128.67 07/07/2019 19:56:28 -73.81, 55.22 128.69 3.75 4
3 07/07/2019 20:45:59 73.84,-137.26 51.35 07/07/2019 20:47:07 73.86,-137.33 51.36 3.22 68
4 07/10/2019 14:41:17 73.72, -45.85 51.55 07/10/2019 14:40:10 73.73, -45.89 51.58 1.61 67
5 07/10/2019 15:30:45 -73.81, 121.60 128.35 07/10/2019 15:30:50 -73.81, 121.63 128.35 0.85 5
6 07/10/2019 16:20:15 73.98, -71.14 51.84 07/10/2019 16:21:27 73.96, -70.68 51.79 14.25 72
7 07/13/2019 10:15:31 73.71, 20.61 51.93 07/13/2019 10:14:33 73.73, 20.53 51.96 3.43 58
8 07/13/2019 11:04:59 -73.80,-171.94 127.98 07/13/2019 11:05:13 -73.81,-171.97 127.97 1.41 14
9 07/13/2019 11:54:35 74.28, -5.39 52.56 07/13/2019 11:55:43 74.31, -3.41 52.49 59.87 68
10 07/16/2019 05:49:46 73.76, 86.94 52.42 07/16/2019 05:48:56 73.74, 86.94 52.40 3.20 50
11 07/16/2019 06:39:13 -73.80,-105.49 127.54 07/16/2019 06:39:36 -73.81,-105.57 127.53 2.80 23
12 07/19/2019 01:24:00 73.77, 153.37 52.91 07/19/2019 01:23:18 73.79, 153.46 52.93 3.49 42
13 07/19/2019 02:13:26 -73.80, -39.05 127.06 07/19/2019 02:13:58 -73.81, -39.16 127.05 3.57 32




NCC Satellite Simultaneous Nadir Overpasses (SNOs) Prediction Service
